User: anonymous   Login
Location: Unspecified
(0.0000°N, 0.0000°E)
Time: 10:53:38
(UTC+00:00)
Language:

YUBELEINY 2 - Orbit

View from above orbital plane
View from above orbital plane
View from above satellite
View from above satellite

Ground track
Ground track

The orbit data is extracted from the following two-line orbital elements,

1 38735U 12041C   24110.88483098  .00000042  00000-0  23408-3 0  9996
2 38735  82.4796 206.2191 0016590 349.3608  10.7118 12.42606366531934
Epoch (UTC): 19 April 2024 21:14:09
Eccentricity: 0.0016590
inclination: 82.4796°
perigee height: 1482 km
apogee height: 1508 km
right ascension of ascending node: 206.2191°
argument of perigee: 349.3608°
revolutions per day: 12.42606366
mean anomaly at epoch: 10.7118°
orbit number at epoch: 53193

The dashed part of the orbit path shows where the satellite is in the earth's shadow,  

DLR